Terminal Aerodrome Forecast
Issued by NWS Duluth, MN

Home | Current Version | Previous Version | Text Only | Print | Product List | Glossary On
Versions: 1 2 3 4 5 6 7 8 9 10 11 12 13 14 15 16 17 18 19 20 21 22 23 24 25 26 27 28 29 30 31 32 33 34 35 36 37 38 39
137
FTUS43 KDLH 171929 AAB
TAFDLH
TAF AMD
KDLH 171929Z 1719/1818 21008KT 3SM -PLRA BR OVC004
      TEMPO 1719/1721 2SM -FZRASN
     FM172100 26004KT 4SM -DZSN OVC005
     FM172300 30005KT 5SM BR OVC008
     FM180000 31006KT 4SM BR OVC010
     FM180500 34009KT P6SM SCT015 BKN035
     FM181500 33012G18KT P6SM SCT035=

USA.gov is the U.S. government's official web portal to all federal, state and local government web resources and services.